Theta_e
311 309 308 308 309 307 306 305 304 305 305 306 305 305 304 304 305 310 313 312 313 314 341 347 347 346 351 354 352 348 356 356 352 353 355 355 356 350 349 351 349 348 348 346 347
311 311 308 307 307 306 306 305 305 304 304 304 306 306 305 306 312 314 313 312 312 315 347 344 347 348 353 354 354 357 358 354 349 347 352 356 355 353 353 351 350 350 347 347 346
311 310 309 307 307 307 306 307 306 306 304 304 306 309 306 311 314 313 320 320 311 316 342 343 346 348 353 355 356 355 359 351 347 344 349 355 355 352 354 353 350 353 351 348 347
310 309 307 307 307 306 306 305 305 305 306 306 309 311 309 314 315 318 322 320 320 340 344 346 348 350 353 356 354 356 353 352 349 344 348 355 354 354 352 348 345 349 348 348 348
308 306 306 305 305 305 304 305 306 306 307 309 311 312 314 316 310 315 319 316 347 344 342 346 349 348 350 349 350 356 350 346 347 344 344 351 355 355 353 347 347 349 347 348 348
307 305 304 304 304 304 304 304 306 305 305 310 312 314 312 307 309 310 318 331 343 345 343 344 346 344 342 334 344 342 344 341 340 338 346 351 352 353 353 349 350 350 349 348 347
305 304 303 303 303 302 303 305 306 309 308 310 314 313 316 310 309 313 317 334 341 337 341 337 337 343 328 329 328 330 329 329 332 335 340 349 356 356 351 350 351 350 349 348 348
303 303 302 302 302 302 302 306 316 316 314 314 315 314 313 308 309 312 327 328 339 334 331 332 332 338 325 323 324 326 327 331 330 336 340 349 346 352 351 352 352 350 350 350 349
302 302 301 301 301 301 304 305 318 315 318 317 315 316 312 314 313 311 320 327 334 332 323 326 324 328 327 329 324 325 330 329 330 335 345 349 344 345 351 352 353 350 350 350 350
302 302 302 301 301 302 306 313 320 319 317 318 316 317 315 317 318 315 313 324 326 326 323 323 324 325 324 326 325 326 327 329 331 333 339 349 346 342 351 353 354 351 350 350 350
303 302 302 301 301 303 307 308 310 312 307 323 322 319 320 318 321 317 312 319 320 322 322 324 324 325 324 323 324 323 326 329 330 329 332 337 343 341 347 353 355 353 351 350 349
303 302 302 302 302 303 306 307 304 303 308 309 308 311 315 316 318 318 313 315 318 321 321 322 323 322 323 323 322 322 324 328 328 325 326 330 333 336 346 351 353 354 353 351 349
302 302 302 302 302 302 304 304 303 304 309 311 310 312 313 313 317 319 315 317 317 318 319 322 321 322 323 323 324 322 322 326 328 325 326 330 332 340 349 350 351 352 352 351 351
301 302 302 302 302 302 303 303 303 304 312 315 312 313 312 315 317 317 317 317 318 319 319 320 322 322 322 323 324 324 322 323 325 327 331 332 337 340 345 353 352 352 353 352 352
301 302 302 302 303 305 303 304 304 304 314 317 312 311 313 318 316 317 317 319 319 320 321 321 322 323 324 323 324 323 323 324 325 327 328 329 332 335 346 353 354 352 351 352 351
301 301 302 303 303 303 304 304 304 312 315 319 314 313 315 315 315 317 318 320 321 321 321 322 320 322 323 323 324 324 324 324 324 326 328 329 330 334 338 348 351 351 351 350 351
301 301 303 303 304 303 304 305 312 315 315 318 317 316 316 317 315 318 320 321 324 323 323 322 321 322 322 323 323 324 324 326 325 326 327 328 329 332 333 341 340 349 351 350 348
301 302 303 304 303 303 304 306 313 313 314 314 314 315 318 316 317 317 320 322 323 323 323 323 323 321 322 323 323 324 324 323 325 324 324 327 329 331 330 331 338 342 346 349 350
302 302 302 303 303 302 307 304 310 313 311 312 314 317 317 315 315 317 319 322 323 322 324 323 323 321 321 322 323 324 326 323 322 321 323 325 327 328 329 330 336 340 344 348 349
303 301 302 303 303 305 307 308 310 311 312 311 314 314 316 315 318 317 321 319 322 321 321 324 325 323 321 321 323 322 323 323 324 324 324 324 327 329 333 332 333 338 340 343 346
301 304 302 303 302 307 308 308 309 310 311 311 312 312 313 314 316 317 320 318 316 319 322 322 324 324 322 323 323 321 324 323 323 323 322 322 324 328 333 336 334 333 336 339 341
300 304 302 303 305 305 305 305 307 310 310 311 311 313 315 315 316 317 320 317 314 320 324 321 320 327 325 323 324 322 323 324 325 327 323 323 323 325 329 333 333 334 335 336 340
302 302 302 303 305 305 305 305 306 308 310 312 312 312 313 314 315 317 317 315 313 318 320 320 323 328 326 325 322 324 325 324 324 324 329 324 323 327 327 327 329 331 332 334 339
304 304 303 302 302 304 304 305 306 306 308 309 312 309 311 313 315 315 314 314 311 316 318 318 320 325 328 327 323 325 324 325 324 327 326 327 325 326 327 327 329 329 331 333 339
304 304 303 305 304 305 305 304 306 306 305 308 308 310 308 312 313 313 312 312 313 314 314 316 320 318 319 318 319 321 322 322 324 326 329 327 329 326 327 327 330 332 333 332 335
305 305 303 303 304 304 303 304 305 305 304 305 310 309 308 312 310 313 311 312 312 313 314 314 316 319 316 316 318 320 321 321 322 323 323 324 325 325 327 328 329 331 333 331 333
303 303 303 303 304 304 304 305 305 305 304 305 306 305 307 308 306 306 307 308 309 311 312 313 315 316 317 316 318 321 321 321 322 322 323 325 325 325 326 327 329 333 334 335 335
Wind_Speed
26 27 27 27 26 26 26 26 25 24 23 21 20 18 19 19 20 10 10 19 15 17 17 22 13 17 12 6 3 2 2 2 1 4 3 13 7 9 8 14 5 7 8 17 30
27 28 28 28 28 28 27 26 26 26 24 23 21 19 17 17 16 15 33 21 18 24 24 28 17 21 6 7 4 4 3 3 4 3 4 13 11 13 7 14 6 6 13 29 31
27 28 29 29 30 29 30 27 30 27 25 23 21 18 14 13 6 7 3 8 24 27 22 23 24 15 8 6 7 4 4 4 3 3 6 12 9 10 11 13 13 18 22 27 29
28 29 30 32 32 33 32 34 35 30 27 24 19 15 8 3 6 1 6 8 28 25 27 21 17 12 9 8 9 5 9 7 4 4 2 12 9 8 13 4 14 17 26 28 25
30 32 34 35 36 37 37 42 35 30 26 21 15 10 2 4 11 8 2 18 29 24 30 18 22 13 12 10 7 13 7 4 11 12 7 11 15 12 14 3 15 21 25 24 23
32 34 37 39 40 41 43 40 32 32 27 19 11 4 3 8 7 11 10 24 29 28 27 20 16 13 10 6 15 6 9 9 10 13 8 12 12 11 11 12 17 22 26 24 24
34 37 39 41 44 44 45 35 36 30 23 17 12 9 5 16 5 8 16 26 30 36 25 25 10 15 6 5 10 9 13 9 12 10 8 9 7 15 10 17 19 22 23 23 22
36 38 41 44 46 45 42 36 19 13 5 7 16 11 9 5 20 7 12 12 19 23 24 19 10 17 4 1 1 4 5 8 3 9 7 15 11 17 18 19 20 22 22 22 23
36 39 42 45 49 44 35 21 11 16 12 20 12 6 7 2 7 21 17 11 21 19 11 15 11 6 6 10 8 5 10 10 8 10 5 16 9 12 21 21 21 22 23 22 21
38 41 44 47 50 35 31 3 6 9 8 1 5 4 7 4 6 12 25 25 11 18 11 8 10 11 9 13 13 11 10 8 9 8 10 16 16 0 19 22 22 22 22 22 23
39 42 46 47 46 29 23 2 2 3 3 8 2 6 4 4 7 6 25 18 11 15 13 15 13 22 24 18 16 8 12 10 10 6 8 14 14 12 16 22 21 21 22 23 25
40 43 46 46 36 18 13 6 7 7 12 14 21 17 23 5 3 12 28 16 15 18 14 8 24 20 15 16 17 18 17 17 10 7 4 6 10 6 15 23 24 23 23 24 21
40 42 44 46 20 17 7 8 11 7 6 9 8 8 8 13 7 16 26 12 24 24 27 25 7 20 19 17 19 23 24 17 8 2 4 5 14 7 11 15 18 22 22 20 23
40 41 42 41 5 22 3 11 23 2 5 6 6 5 8 9 9 15 27 15 11 27 23 20 18 24 24 26 22 23 18 17 16 9 11 6 14 7 12 17 18 20 21 23 23
40 41 41 21 10 9 11 25 17 4 6 4 4 8 9 12 1 12 30 12 21 20 15 17 24 20 26 27 23 20 14 15 15 13 12 13 8 14 5 12 19 22 24 25 25
41 40 35 12 12 18 26 24 3 4 9 1 4 4 6 12 2 4 15 13 6 12 21 19 7 23 16 20 22 12 13 8 5 9 15 21 14 17 13 16 16 21 23 24 24
42 39 21 8 9 29 22 4 4 7 8 5 4 6 6 2 6 6 18 26 17 17 17 21 14 15 17 16 20 20 18 7 10 11 15 15 14 20 9 17 19 20 25 26 26
40 35 9 9 22 28 8 3 9 4 5 9 8 12 3 4 1 2 15 24 23 18 15 19 16 20 19 20 13 28 22 9 14 15 13 7 14 14 17 19 19 17 21 23 22
39 28 8 14 28 11 4 5 4 7 9 13 12 2 1 4 5 4 6 22 21 13 12 18 19 11 20 14 21 17 24 23 10 1 4 13 14 10 9 20 16 19 17 19 24
28 10 7 31 14 3 2 4 4 10 15 9 5 8 6 9 4 3 2 7 5 2 5 6 7 12 26 16 25 15 18 11 14 13 12 8 12 13 19 18 21 18 18 20 21
8 4 14 31 6 3 3 5 6 8 13 8 7 8 8 5 6 5 7 7 8 7 6 2 5 5 16 22 23 10 19 11 11 9 9 8 9 10 16 20 21 22 21 20 20
5 3 19 23 6 3 5 12 9 9 8 5 5 7 5 4 4 4 4 6 13 9 1 4 2 11 16 13 21 25 18 23 11 13 13 6 8 2 12 11 17 21 19 19 20
4 3 9 10 5 7 10 7 10 11 11 7 6 8 6 4 3 5 5 3 14 12 6 5 3 11 7 11 9 22 22 23 21 11 18 12 5 8 7 5 9 11 14 12 11
3 4 3 3 1 3 8 6 9 10 3 7 7 7 7 2 2 2 5 3 10 9 9 4 1 9 13 6 3 5 10 25 25 17 17 21 16 11 5 9 11 13 14 11 11
2 2 3 5 5 10 9 5 12 9 7 5 4 9 9 4 3 3 6 5 4 9 6 5 1 4 5 7 6 9 10 10 17 22 23 22 24 19 16 14 10 10 8 9 10
2 2 1 4 7 9 6 4 8 9 10 9 4 10 10 5 5 6 9 4 3 6 5 6 1 2 7 9 10 14 13 14 14 16 16 22 25 8 13 19 20 18 17 13 14
1 4 1 4 4 7 5 5 11 15 7 6 11 13 11 5 12 13 12 13 12 9 4 4 2 2 6 7 12 15 21 17 14 13 15 22 18 14 17 13 16 18 17 16 13
Wind_Direction
359 358 354 350 347 345 343 340 337 333 330 328 327 325 326 319 310 290 241 243 224 207 162 153 157 161 168 183 179 158 248 249 235 216 136 158 144 152 128 144 166 178 150 148 156
355 353 353 349 347 344 341 337 334 330 327 323 323 322 326 326 314 263 270 257 217 190 162 165 164 160 176 188 193 219 231 209 227 225 191 179 168 147 145 157 166 123 128 144 157
352 350 351 348 345 341 337 334 330 324 321 318 317 318 327 331 288 252 305 229 191 188 171 165 154 161 173 183 196 182 232 224 265 43 178 174 176 163 147 183 185 172 152 155 164
348 349 350 348 343 342 338 333 328 320 313 310 309 313 327 317 258 103 24 167 173 167 155 156 163 166 182 195 199 228 236 243 280 305 221 178 173 194 187 167 187 169 163 160 171
352 352 351 348 345 341 338 335 325 315 304 298 297 306 327 231 247 255 72 146 162 167 164 169 172 173 190 200 179 227 263 264 252 280 265 202 194 190 210 189 148 155 166 172 175
351 352 350 348 344 341 338 334 326 312 299 285 268 248 193 246 247 225 209 161 170 173 176 173 184 183 184 201 207 185 226 267 267 264 219 201 203 189 201 146 146 158 171 177 182
351 350 350 347 343 341 339 333 325 305 286 265 222 185 217 243 213 189 188 184 180 179 182 189 177 189 166 211 237 251 276 287 251 229 219 194 193 222 153 157 158 167 177 181 190
354 352 350 348 344 341 336 337 338 336 285 201 176 170 245 265 221 185 168 179 192 188 193 190 196 202 219 315 192 223 221 244 197 211 191 183 238 218 172 165 170 174 179 187 192
355 353 350 348 346 341 340 337 32 53 103 124 135 194 252 233 208 207 180 160 171 180 178 185 183 209 206 236 249 214 234 227 246 204 162 195 244 236 180 179 179 181 184 189 192
354 353 351 348 348 342 345 12 117 85 106 57 101 240 238 222 172 162 180 145 158 167 178 167 199 218 212 203 212 212 214 228 237 188 204 210 241 185 187 193 190 186 188 191 197
352 351 351 347 347 357 357 13 322 186 313 237 209 282 297 318 151 159 166 146 127 172 183 190 194 208 212 218 227 232 233 237 246 214 217 224 235 241 196 203 203 191 190 196 204
351 350 349 347 345 358 29 67 76 299 300 252 244 255 260 317 218 155 158 164 181 189 177 172 220 207 201 203 218 226 236 235 248 258 263 230 246 244 202 207 204 196 196 202 200
349 349 349 344 346 352 25 91 354 340 256 284 220 228 225 191 226 186 181 174 185 192 197 201 189 198 197 203 212 223 226 222 242 332 232 266 262 224 214 219 208 211 206 204 200
348 348 348 342 0 336 67 330 332 269 277 256 221 243 169 158 234 204 192 176 190 200 197 222 209 191 200 212 206 224 222 236 242 251 247 212 265 226 213 208 209 211 207 208 204
347 347 346 345 311 324 310 320 326 176 287 103 140 153 155 190 50 198 190 202 197 182 178 202 200 192 208 207 202 222 200 212 232 240 258 226 251 244 199 215 214 214 212 212 207
345 344 345 346 331 328 320 319 150 224 240 96 94 162 165 222 239 106 188 216 188 186 213 205 209 193 201 209 200 191 186 163 196 233 241 238 231 249 216 210 218 218 218 215 211
342 342 343 330 331 337 327 289 193 231 346 23 1 349 317 248 218 186 189 192 185 184 196 205 193 197 193 184 197 195 174 179 216 217 238 224 228 242 238 214 218 210 216 215 209
341 343 348 328 334 335 323 228 223 22 346 351 335 310 234 344 222 228 190 196 206 206 185 195 208 192 188 202 184 200 199 205 213 230 237 194 235 234 224 230 228 231 220 214 211
341 346 359 347 334 328 303 237 355 24 347 329 320 299 329 8 333 325 190 204 202 211 215 202 216 191 177 188 183 185 210 210 244 127 249 224 246 261 234 219 215 217 215 211 210
337 335 329 346 345 341 281 295 326 8 340 334 334 2 352 348 350 358 116 359 238 346 317 189 204 198 192 180 197 190 174 179 213 227 233 212 240 239 194 206 215 213 211 215 214
350 346 355 349 347 22 26 319 308 337 344 321 321 316 325 332 335 10 26 49 1 334 338 275 238 145 170 201 185 183 192 203 205 223 226 243 239 209 215 209 205 212 216 213 211
356 346 354 3 37 4 354 322 309 330 338 318 305 308 293 327 320 30 83 44 356 342 44 34 250 212 205 192 209 200 192 197 204 196 226 269 248 260 228 221 222 221 219 219 214
353 300 346 12 42 354 338 312 319 342 340 344 336 359 344 340 301 52 42 11 4 17 25 360 232 197 212 210 202 219 212 203 218 236 213 212 195 234 243 232 209 228 241 234 227
356 332 332 38 93 344 336 318 331 340 26 355 328 346 343 325 19 13 8 21 346 7 357 303 25 256 219 212 28 218 216 212 219 228 225 226 236 227 277 241 257 254 257 244 218
27 10 358 323 338 324 309 292 313 355 349 0 348 20 355 288 281 340 17 339 56 6 3 11 353 333 307 303 301 267 258 236 232 238 233 241 238 232 254 279 291 296 278 265 253
333 332 328 298 291 304 318 306 310 334 332 315 328 355 343 326 19 327 350 355 6 356 20 358 307 324 300 293 285 277 256 252 247 245 253 257 260 287 261 241 248 262 281 270 271
280 273 231 265 278 300 306 307 312 323 307 2 321 327 312 292 330 309 292 274 270 294 320 317 290 248 252 312 312 272 245 244 245 238 236 242 249 251 248 236 247 252 245 252 247